{"data":{"norad_id":55464,"intl_designator":"2023-015R","name":"STARLINK-5676","alt_names":[],"object_type":"PAYLOAD","status":"ACTIVE","operator":null,"country":"US","launch_date":"2023-02-02","launch_site_code":"AFETR","launch_vehicle":null,"mission":null,"orbit_class":"UNKNOWN","rcs_meters":null,"size_class":null,"mass_kg":null,"dimensions":null,"purposes":["comms"],"wikipedia_slug":null,"has_3d_model":false,"image_url":null,"decayed_at":null,"tle_current":{"epoch":"2026-09-20T14:45:38.568672Z","epoch_age_seconds":90063,"freshness":"FRESH","line1":"1 55464U 23015R   26263.61502973  .00000115  00000+0  13718-4 0  9997","line2":"2 55464  43.0022 307.8569 0001307 268.7715  91.2987 15.27578019200533","mean_motion":15.27578019,"eccentricity":0.0001307,"inclination_deg":43.0022,"raan_deg":307.8569,"arg_perigee_deg":268.7715,"mean_anomaly_deg":91.2987,"bstar":1.3718e-5,"rev_number":20053,"period_min":94.266870961044,"perigee_km":482.15827007468,"apogee_km":483.95178567077,"semimajor_km":6861.1920278727,"source":"CELESTRAK","updated_at":"2026-09-21T09:00:33.229928Z"}}}